• In Netherlands
  • List of Countries
  • For 7 days
  • Water Temperature
  • Satellite Maps
  • Weather Map
  • Weather Widgets
  • user-avatar
    Login

    Hourly Weather Jalalabad

    Today, 24 June, Saturday

    Time Temperature Precipitation Wind Pressure Humidity
    00:00 +29°C° 0 mm 0 mps 703 mmHg 34%
    01:00 +28°C° 0 mm 0 mps 703 mmHg 35%
    02:00 +28°C° 0 mm 0 mps 702 mmHg 36%
    03:00 +29°C° 0 mm 1 mps 702 mmHg 37%
    04:00 +29°C° 0 mm 1 mps 702 mmHg 38%
    05:00 +29°C° 0 mm 1 mps 702 mmHg 39%
    06:00 +31°C° 0 mm 1 mps 702 mmHg 33%
    07:00 +33°C° 0 mm 1 mps 702 mmHg 27%
    08:00 +34°C° 0 mm 0 mps 703 mmHg 21%
    09:00 +37°C° 0 mm 1 mps 703 mmHg 19%
    10:00 +40°C° 0 mm 2 mps 703 mmHg 17%
    11:00 +41°C° 0 mm 2 mps 703 mmHg 15%
    12:00 +43°C° 0 mm 3 mps 702 mmHg 15%
    13:00 +44°C° 0 mm 3 mps 702 mmHg 15%
    14:00 +44°C° 0 mm 3 mps 702 mmHg 14%
    15:00 +44°C° 0 mm 3 mps 701 mmHg 15%
    16:00 +44°C° 0 mm 3 mps 701 mmHg 15%
    17:00 +44°C° 0 mm 3 mps 701 mmHg 16%
    18:00 +41°C° 0 mm 2 mps 701 mmHg 20%
    19:00 +37°C° 0 mm 1 mps 701 mmHg 23%
    20:00 +35°C° 0 mm 1 mps 701 mmHg 27%
    21:00 +34°C° 0 mm 1 mps 701 mmHg 30%
    22:00 +32°C° 0 mm 0 mps 702 mmHg 32%
    23:00 +31°C° 0 mm 0 mps 702 mmHg 35%

    Tomorrow, 25 June, Sunday

    Time Temperature Precipitation Wind Pressure Humidity
    00:00 +30°C° 0 mm 0 mps 702 mmHg 36%
    01:00 +32°C° 0 mm 1 mps 702 mmHg 37%
    02:00 +31°C° 0 mm 1 mps 702 mmHg 38%
    03:00 +31°C° 0 mm 1 mps 702 mmHg 39%
    04:00 +30°C° 0 mm 1 mps 702 mmHg 40%
    05:00 +30°C° 0 mm 1 mps 702 mmHg 41%
    06:00 +32°C° 0 mm 1 mps 703 mmHg 35%
    07:00 +34°C° 0 mm 1 mps 703 mmHg 30%
    08:00 +36°C° 0 mm 1 mps 704 mmHg 25%
    09:00 +37°C° 0 mm 1 mps 704 mmHg 23%
    10:00 +39°C° 0 mm 1 mps 704 mmHg 22%
    11:00 +41°C° 0 mm 2 mps 704 mmHg 21%
    12:00 +41°C° 0 mm 2 mps 703 mmHg 20%
    13:00 +42°C° 0 mm 2 mps 703 mmHg 20%
    14:00 +43°C° 0 mm 2 mps 703 mmHg 19%
    15:00 +44°C° 0 mm 3 mps 702 mmHg 20%
    16:00 +44°C° 0 mm 3 mps 702 mmHg 21%
    17:00 +43°C° 0 mm 3 mps 702 mmHg 22%
    18:00 +41°C° 0.1 mm 2 mps 702 mmHg 25%
    19:00 +39°C° 0.1 mm 1 mps 702 mmHg 29%
    20:00 +36°C° 0.1 mm 1 mps 702 mmHg 33%
    21:00 +35°C° 0.3 mm 1 mps 702 mmHg 34%
    22:00 +35°C° 0.3 mm 1 mps 703 mmHg 34%
    23:00 +35°C° 0.3 mm 1 mps 703 mmHg 35%

    Day after tomorrow, 26 June, Monday

    Time Temperature Precipitation Wind Pressure Humidity
    00:00 +34°C° 0.3 mm 1 mps 703 mmHg 36%
    01:00 +34°C° 0.3 mm 1 mps 703 mmHg 36%
    02:00 +33°C° 0.3 mm 1 mps 703 mmHg 37%
    03:00 +33°C° 0.3 mm 1 mps 703 mmHg 38%
    04:00 +33°C° 0.3 mm 1 mps 703 mmHg 39%
    05:00 +32°C° 0.3 mm 1 mps 703 mmHg 40%
    06:00 +34°C° 0.2 mm 1 mps 703 mmHg 37%
    07:00 +35°C° 0.2 mm 1 mps 704 mmHg 33%
    08:00 +37°C° 0.2 mm 1 mps 704 mmHg 29%
    09:00 +39°C° 0 mm 1 mps 704 mmHg 28%
    10:00 +40°C° 0 mm 1 mps 704 mmHg 27%
    11:00 +41°C° 0 mm 2 mps 704 mmHg 27%
    12:00 +42°C° 0 mm 2 mps 704 mmHg 26%
    13:00 +43°C° 0 mm 2 mps 704 mmHg 25%
    14:00 +43°C° 0 mm 2 mps 703 mmHg 24%
    15:00 +44°C° 0.1 mm 3 mps 703 mmHg 24%
    16:00 +44°C° 0.1 mm 3 mps 703 mmHg 24%
    17:00 +44°C° 0.1 mm 3 mps 702 mmHg 25%
    18:00 +41°C° 0.1 mm 2 mps 702 mmHg 28%
    19:00 +39°C° 0.1 mm 1 mps 702 mmHg 32%
    20:00 +37°C° 0.1 mm 1 mps 703 mmHg 35%
    21:00 +36°C° 0 mm 1 mps 703 mmHg 36%
    22:00 +35°C° 0 mm 1 mps 703 mmHg 37%
    23:00 +35°C° 0 mm 1 mps 703 mmHg 38%

    27 June, Tuesday

    Time Temperature Precipitation Wind Pressure Humidity
    00:00 +34°C° 0 mm 1 mps 703 mmHg 37%
    01:00 +35°C° 0 mm 2 mps 703 mmHg 36%
    02:00 +34°C° 0 mm 2 mps 703 mmHg 35%
    03:00 +34°C° 0 mm 2 mps 703 mmHg 34%
    04:00 +32°C° 0 mm 2 mps 703 mmHg 33%
    05:00 +32°C° 0 mm 2 mps 703 mmHg 33%
    06:00 +35°C° 0 mm 2 mps 703 mmHg 29%
    07:00 +37°C° 0 mm 2 mps 704 mmHg 25%
    08:00 +38°C° 0 mm 2 mps 704 mmHg 21%
    09:00 +40°C° 0 mm 2 mps 704 mmHg 20%
    10:00 +41°C° 0 mm 2 mps 704 mmHg 19%
    11:00 +42°C° 0 mm 2 mps 704 mmHg 17%
    12:00 +43°C° 0 mm 2 mps 704 mmHg 16%
    13:00 +45°C° 0 mm 2 mps 703 mmHg 16%
    14:00 +46°C° 0 mm 2 mps 703 mmHg 15%
    15:00 +45°C° 0.1 mm 2 mps 702 mmHg 15%
    16:00 +45°C° 0.1 mm 2 mps 702 mmHg 16%
    17:00 +45°C° 0.1 mm 3 mps 702 mmHg 16%
    18:00 +42°C° 0.1 mm 2 mps 702 mmHg 18%
    19:00 +40°C° 0.1 mm 2 mps 702 mmHg 20%
    20:00 +39°C° 0.1 mm 2 mps 702 mmHg 22%
    21:00 +38°C° 0 mm 2 mps 702 mmHg 23%
    22:00 +37°C° 0 mm 2 mps 702 mmHg 24%
    23:00 +37°C° 0 mm 2 mps 703 mmHg 25%

    28 June, Wednesday

    Time Temperature Precipitation Wind Pressure Humidity
    00:00 +36°C° 0 mm 2 mps 702 mmHg 26%
    01:00 +35°C° 0 mm 2 mps 702 mmHg 27%
    02:00 +34°C° 0 mm 2 mps 702 mmHg 28%
    03:00 +34°C° 0 mm 2 mps 702 mmHg 29%
    04:00 +32°C° 0 mm 2 mps 702 mmHg 29%
    05:00 +31°C° 0 mm 1 mps 702 mmHg 30%
    06:00 +33°C° 0 mm 1 mps 703 mmHg 26%
    07:00 +35°C° 0 mm 1 mps 703 mmHg 22%
    08:00 +37°C° 0 mm 1 mps 704 mmHg 19%
    09:00 +39°C° 0 mm 1 mps 704 mmHg 18%
    10:00 +40°C° 0 mm 1 mps 704 mmHg 17%
    11:00 +41°C° 0 mm 1 mps 703 mmHg 16%
    12:00 +42°C° 0 mm 2 mps 703 mmHg 15%
    13:00 +44°C° 0 mm 3 mps 703 mmHg 15%
    14:00 +45°C° 0 mm 3 mps 702 mmHg 15%
    15:00 +44°C° 0 mm 3 mps 702 mmHg 16%
    16:00 +44°C° 0 mm 3 mps 702 mmHg 17%
    17:00 +44°C° 0 mm 3 mps 702 mmHg 18%
    18:00 +42°C° 0.4 mm 3 mps 702 mmHg 21%
    19:00 +40°C° 0.4 mm 2 mps 702 mmHg 25%
    20:00 +37°C° 0.4 mm 1 mps 703 mmHg 28%
    21:00 +36°C° 0.4 mm 1 mps 703 mmHg 30%
    22:00 +36°C° 0.4 mm 1 mps 703 mmHg 32%
    23:00 +36°C° 0.4 mm 1 mps 703 mmHg 33%

    29 June, Thursday

    Time Temperature Precipitation Wind Pressure Humidity
    00:00 +34°C° 0.1 mm 1 mps 703 mmHg 36%
    01:00 +33°C° 0.1 mm 1 mps 703 mmHg 38%
    02:00 +32°C° 0.1 mm 2 mps 702 mmHg 41%
    03:00 +32°C° 0.4 mm 1 mps 703 mmHg 47%
    04:00 +31°C° 0.4 mm 1 mps 703 mmHg 52%
    05:00 +31°C° 0.4 mm 1 mps 703 mmHg 58%
    06:00 +31°C° 0.3 mm 1 mps 703 mmHg 54%
    07:00 +32°C° 0.3 mm 1 mps 703 mmHg 51%
    08:00 +33°C° 0.3 mm 1 mps 704 mmHg 48%
    09:00 +34°C° 0.1 mm 1 mps 703 mmHg 42%
    10:00 +36°C° 0.1 mm 1 mps 703 mmHg 35%
    11:00 +38°C° 0.1 mm 2 mps 703 mmHg 29%
    12:00 +39°C° 0.2 mm 2 mps 703 mmHg 28%
    13:00 +40°C° 0.2 mm 3 mps 703 mmHg 27%
    14:00 +42°C° 0.2 mm 4 mps 702 mmHg 26%
    15:00 +42°C° 0.5 mm 4 mps 702 mmHg 28%
    16:00 +41°C° 0.5 mm 4 mps 702 mmHg 29%
    17:00 +41°C° 0.5 mm 4 mps 701 mmHg 31%
    18:00 +39°C° 0.8 mm 3 mps 702 mmHg 37%
    19:00 +37°C° 0.8 mm 3 mps 702 mmHg 43%
    20:00 +36°C° 0.8 mm 2 mps 702 mmHg 48%
    21:00 +35°C° 0.9 mm 2 mps 702 mmHg 52%
    22:00 +33°C° 0.9 mm 1 mps 702 mmHg 55%
    23:00 +32°C° 0.9 mm 1 mps 702 mmHg 58%
    Show more